Date,TemperatureHighF,TemperatureAvgF,TemperatureLowF,DewpointHighF,DewpointAvgF,DewpointLowF,HumidityHigh,HumidityAvg,HumidityLow,PressureMaxIn,PressureMinIn,WindSpeedMaxMPH,WindSpeedAvgMPH,GustSpeedMaxMPH,PrecipitationSumIn
2013-3-1,31.8,28.0,26.4,28.9,25.3,23.4,94,90,84,30.18,30.04,19,9,20,0.00
2013-3-2,29.5,26.4,19.1,24.0,22.2,15.0,92,84,76,30.20,30.15,14,6,0,0.00
2013-3-3,32.8,23.6,14.6,20.4,16.1,11.4,88,74,47,30.18,30.10,10,4,0,0.00
2013-3-4,33.4,26.6,18.6,27.5,21.7,15.8,91,82,66,30.17,30.03,13,5,15,0.00
2013-3-10,53.7,47.7,38.9,49.6,44.4,36.5,96,88,78,29.85,29.63,18,6,22,0.57
2013-3-11,48.6,38.5,31.8,47.2,37.0,29.5,97,94,90,29.83,29.58,22,10,24,0.10
2013-3-12,37.3,31.3,26.8,31.2,27.2,22.5,94,85,71,30.05,29.83,22,12,24,0.00
2013-3-13,32.9,27.2,23.1,23.3,20.0,16.8,90,74,55,30.37,30.05,21,10,22,0.00
2013-3-14,34.0,29.0,23.0,30.5,25.1,19.8,95,85,67,30.37,30.12,13,5,13,0.00
2013-3-15,43.7,35.5,27.6,40.1,33.3,26.1,96,92,84,30.12,29.73,13,4,0,0.02
2013-3-16,35.4,32.7,29.9,34.4,30.2,24.9,97,91,80,30.14,29.68,19,9,21,0.00
2013-3-17,34.7,31.2,28.9,26.5,24.6,21.9,86,76,67,30.22,30.01,18,8,21,0.00
2013-3-18,34.7,30.1,22.7,32.9,27.2,15.9,96,89,74,30.02,29.65,29,10,33,0.03
2013-3-19,33.9,25.7,18.6,22.4,17.7,12.6,82,72,56,30.12,29.85,31,17,35,0.00
2013-3-20,26.0,21.1,15.4,19.5,12.3,7.4,84,68,56,30.13,30.06,26,12,31,0.00
2013-3-21,33.4,22.8,12.6,19.6,13.7,7.6,84,69,48,30.10,30.03,15,6,18,0.00
2013-3-22,39.9,28.0,16.9,22.1,18.7,13.4,88,70,43,30.10,30.03,16,4,20,0.00
2013-3-23,40.7,30.7,22.5,27.0,23.7,19.9,93,76,49,30.16,30.02,16,4,18,0.00
2013-3-24,35.7,31.5,28.1,30.1,26.4,23.8,96,82,67,30.04,29.62,25,12,29,0.00
2013-3-25,35.9,32.3,28.4,31.2,27.7,25.9,96,83,76,30.09,29.67,24,12,27,0.00
2013-3-26,40.2,33.8,27.6,28.6,26.4,22.1,89,75,52,30.28,30.09,13,6,15,0.00
2013-3-27,31.4,31.4,31.4,27.1,27.1,27.1,84,84,84,30.28,30.28,0,0,0,0.00